Regional Weather Roundup
Issued by NWS

Home | Current Version | Previous Version | Graphics & Text | Print | Product List | Glossary On
Versions: 1 2 3 4 5 6 7 8 9 10 11 12 13 14 15 16 17 18 19 20 21 22 23 24 25 26 27 28 29 30 31 32 33 34 35 36 37 38 39 40 41 42 43 44 45 46 47 48 49 50
000
ASUS43 KLOT 011503
RWRIL

ILLINOIS REGIONAL WEATHER ROUNDUP
NATIONAL WEATHER SERVICE CHICAGO/ROMEOVILLE IL
1000 AM CDT SAT OCT 01 2016

NOTE: "FAIR" INDICATES FEW OR NO CLOUDS BELOW 12,000 FEET WITH NO
SIGNIFICANT WEATHER AND/OR OBSTRUCTIONS TO VISIBILITY.

* THESE STATIONS ARE NOT UNDER NWS QUALITY CONTROL. THEY ALSO MAY NOT
  REPORT WEATHER SUCH AS PRECIPITATION OR FOG.

ILZ001-002-007-009-015-016-024-011600-
NORTHWEST ILLINOIS

CITY           SKY/WX    TMP DP  RH WIND       PRES   REMARKS
MOLINE         CLOUDY    62  59  90 N5        30.05S
STERLING*      CLOUDY    62  59  90 E9        30.06R
$$

ILZ003-004-008-010-011-017-018-011600-
NORTH CENTRAL ILLINOIS

CITY           SKY/WX    TMP DP  RH WIND       PRES   REMARKS
ROCKFORD       PTSUNNY   63  58  83 N7        30.06F
FREEPORT*      PTSUNNY   61  57  86 CALM      30.07S
ROCHELLE*      PTSUNNY   60  58  91 CALM      30.05F
$$

ILZ005-006-012>014-019>023-011600-
NORTHEAST ILLINOIS

CITY           SKY/WX    TMP DP  RH WIND       PRES   REMARKS
CHICAGO-OHARE  LGT RAIN  61  59  93 NE9       30.02S FOG
CHICAGO-MIDWAY LGT RAIN  59  56  89 S3        30.02S
AURORA         CLOUDY    61  58  90 N6        30.03S
LANSING*       LGT RAIN  58  58 100 NW6       30.01S
WAUKEGAN       CLOUDY    61  58  90 NE10G18   30.03R
DUPAGE AIRPORT LGT RAIN  61  58  90 N8        30.02S
KANKAKEE*      RAIN      58  58  97 CALM      30.03R
WHEELING       CLOUDY    61  59  93 E8        30.03S
NORTHERLY ISL    N/A     60  58  92 NE8         N/A
$$

LMZ740>746-011600-
SOUTHERN LAKE MICHIGAN

STATION/POSITION SKY/WX   TEMP    WIND        PRES    VSBY  WAVE
                          AIR SEA DIR/SP/G                  HT/PER
                          (F)     (DEG/KT/KT) (MB)    (MI)  (FT/S)
SOUTHERN BUOY              60 67   70/ 17/ 21 1016.5          3/ 6
WILMETTE HARBOR            60 60   80/ 12/ 14   N/A           4/ 5
HARRISON CRIB              62      60/ 14/ 15   N/A
BURNHAM HARBOR             61      50/  6/ 15   N/A
CALUMET HARBOR             58     340/  1/  2 1016.0R
BURNS HARBOR               61      50/  3/  6 1016.6S
MICHIGAN CITY              59      20/ 17/ 18   N/A
MICHIGAN CITY 6N           61 64   40/ 14/ 17   N/A           4/ 6
ST. JOSEPH                 52 51   30/  8/ 10 1016.8R         3/ 5
$$

ILZ025>027-034>036-040-047-049-050-058-095>099-011600-
WEST-CENTRAL ILLINOIS

CITY           SKY/WX    TMP DP  RH WIND       PRES   REMARKS
QUINCY         CLOUDY    63  58  83 NW10      30.06F
GALESBURG*     DRIZZLE   61  60  98 NW5       30.05S
MACOMB*        DRIZZLE   60  60  99 NW7       30.08S
PITTSFIELD*    CLOUDY    63  60  91 NW7       30.08R
$$

ILZ028>032-037-038-041>044-048-051>054-059>061-011600-
CENTRAL ILLINOIS

CITY           SKY/WX    TMP DP  RH WIND       PRES   REMARKS
BLOOMINGTON    CLOUDY    61  56  83 NE8       30.04S
DECATUR        PTSUNNY   65  58  78 N8        30.03S
PEORIA         CLOUDY    63  61  93 NW5       30.04S
LINCOLN*       CLOUDY    62  59  88 CALM      30.03F
SPRINGFIELD    CLOUDY    64  61  90 NW3       30.04S FOG
TAYLORVILLE    NOT AVBL
$$

ILZ033-039-045-046-055>057-062-063-011600-
EAST-CENTRAL ILLINOIS

CITY           SKY/WX    TMP DP  RH WIND       PRES   REMARKS
CHAMPAIGN      LGT RAIN  60  58  92 N5        30.03R FOG
MATTOON        CLOUDY    63  58  83 NW6       30.01F
$$

ILZ079-100>102-011600-
SOUTHWEST ILLINOIS

CITY           SKY/WX    TMP DP  RH WIND       PRES   REMARKS
ALTON          CLOUDY    61  59  94 NW9       30.06R
BELLEVILLE     PTSUNNY   64  63  99 NW8       30.04S
CAHOKIA*       CLOUDY    65  59  81 NW10      30.05S
SPARTA*        CLOUDY    64  61  90 W7        30.06S
$$

ILZ064>066-069>071-074>076-080>082-084>086-088>090-092>094-011600-
SOUTH-CENTRAL ILLINOIS

CITY           SKY/WX    TMP DP  RH WIND       PRES   REMARKS
CARBONDALE     LGT RAIN  63  62  97 W6        30.06R
MARION         CLOUDY    64  63  94 W9        30.06R FOG
MT. VERNON     CLOUDY    63  57  82 CALM      30.04S
CENTRALIA*     LGT RAIN  63  62  99 NW6       30.03S
SALEM*         CLOUDY    66  62  85 NW6       30.03S HAZE
METROPOLIS*    CLOUDY    62  60  94 SW6       30.08R
$$

ILZ067-068-072-073-078-083-087-091-011600-
SOUTHEAST ILLINOIS

CITY           SKY/WX    TMP DP  RH WIND       PRES   REMARKS
LAWRENCEVILLE  CLOUDY    59  57  93 S6        30.03S
FLORA*         CLOUDY    65  61  85 CALM      30.03R
HARRISBURG*    CLOUDY    63  63  98 W9        30.04R
ROBINSON*      CLOUDY    58  57  97 CALM      30.04R FOG
$$

ABBREVIATIONS USED IN REMARKS
   TC - TEMPERATURE IN CELSIUS
  WCI - WIND CHILL INDEX
   HX - HEAT INDEX
  VSB - VISIBILITY
$$





USA.gov is the U.S. government's official web portal to all federal, state and local government web resources and services.